COSMOS 2506 DEB, 47212

Orbit data source: Space-Track

COSMOS 2506 DEB, 47212 is space debris in SSO originally from a launch on Tue, 23 Jun 2015 UTC launched from the Plesetsk Missile And Space Complex (PKMTR). Debris objects in space refer to the collection of defunct objects orbiting the Earth. Examples of debris include non-operational satellites, rocket bodies, and fragments generated from explosions, collisions, or faulty payload assembly.

Loading next visibility...
Identifier
47212, 2015-029C
Orbit
SSO
Country
Flag of CISCIS
Related business
Manufacturer
Unknown
Mission
Spacecraft
Bus & Motor
Unknown
Mass
Unknown
Launch date (UTC)
2015-06-23 (10 years ago)
Launch vehicle
Unknown
Launch site
Plesetsk Missile And Space Complex (PKMTR)
Object type
Payload
Rocket body
Debris
Shape & HBR
Unknown
Radar Cross Section
Small (<0.1 m²)

Expand to show TLE details & history
Last TLE update: 2 days ago

TLE from 2 days ago
0 COSMOS 2506 DEB
1 47212U 15029C   25260.13271811  .00004409  00000-0  75019-3 0  9994
2 47212  98.1478 328.4018 0005757 280.4430  79.6127 14.69587458257481
Epoch: 2025-09-17T03:11Z
TLE epoch observation values (Epoch: 2025-09-17T03:11:06.844Z)
Latitude
0.00001°
Longitude
-75.68977°
Altitude
664.656 km
Speed
7.525 km/s
True Right ascension
21h 53m 36s
True Declination
0° 00' 00"
Sunlit
Object was in full shadow at epoch
Visualization orbit readout
Latitude
Unknown
Longitude
Unknown
Altitude
Unknown
Speed
Unknown
Apparent Right ascension
Unknown
Apparent Declination
Unknown
Sunlit
N/A
Visualization observer readout
Local Sidereal Time
20:52:55
Azimuth
Unknown
Elevation
Unknown
Doppler factor
Unknown
Orbital elements
Apogee altitude
663.503 km
Perigee altitude
655.4 km
Semi-major axis
7,037.588 km
Eccentricity
0.00058
Inclination
98.1478°
RAAN
328.4018°
Arg. of periapsis
280.443°
True anomaly
79.6776°
Mean anomaly
79.6127°
Eccentric anomaly
79.64515°
Mean motion
3.67627 °/min
Orbital period
97.93 mins
BSTAR
0.00075019
Loading maneuver chart data...
Computing Atmospheric mass density...
Loading historical data...
Loading historical data...
Loading historical data...
Loading historical data...
Loading historical data...
Loading historical data...
Loading historical data...
Other satellites on launch #29 in the year 2015 (2015-06-23 UTC)

Documentation

Showing up to 5 results
|